CAPE
0 0 0 0 0 0 0 0 0 0 0 0 0 0 0 0 0 0 0 0 0 0 0 0 0 0 0 0 5 0 0 0 0 0 0 0 0 0 0 0 0 0 0 0
0 0 0 0 0 0 0 0 0 0 0 0 0 0 0 0 0 0 0 0 0 0 0 0 0 0 0 0 0 0 0 0 0 0 0 0 0 0 0 0 0 0 0 0
1 0 0 0 0 0 0 0 0 0 0 0 0 0 0 0 0 0 0 0 0 0 0 0 0 0 0 0 0 0 0 0 0 0 0 0 0 0 0 0 0 0 0 0
2 0 0 0 0 0 0 0 0 0 0 0 0 0 0 0 0 0 0 0 0 0 0 0 0 0 0 0 0 0 0 0 0 0 0 0 0 0 0 0 0 0 0 0
0 0 0 0 0 0 0 0 0 0 0 0 0 0 0 0 0 0 0 0 0 0 0 0 0 0 0 0 0 0 0 0 0 0 0 0 0 0 0 0 0 0 0 0
0 0 0 0 0 0 0 0 0 0 0 0 0 0 0 0 0 0 0 0 0 0 0 0 0 0 0 0 0 0 0 0 0 0 0 0 0 0 0 0 0 0 0 0
0 0 0 0 0 0 0 0 0 0 0 0 0 0 0 0 0 0 0 0 0 0 0 0 0 0 0 0 0 0 0 0 0 0 0 0 0 0 0 0 0 0 0 0
0 0 0 0 0 0 0 0 0 0 0 0 0 0 0 0 0 0 0 0 0 0 0 0 0 0 0 0 0 0 0 0 0 0 0 0 0 0 0 0 0 0 0 0
0 0 0 0 0 0 0 0 0 0 0 0 0 0 0 0 0 0 0 0 0 0 0 0 0 0 0 0 0 0 0 0 0 0 0 0 0 0 0 0 0 0 0 0
0 0 0 0 0 0 0 0 0 0 0 0 0 0 0 0 0 0 0 0 0 0 0 0 0 0 0 0 0 0 0 0 0 0 0 0 0 0 0 0 0 0 0 0
0 0 0 0 0 0 0 0 0 0 0 0 0 0 0 0 0 0 0 0 0 0 0 0 0 0 0 0 0 0 0 0 0 0 0 0 0 0 0 0 0 0 0 0
0 0 0 0 0 0 0 0 0 0 0 0 0 0 0 0 0 0 0 0 0 0 0 0 0 0 0 0 0 0 0 0 0 0 0 0 0 0 0 0 0 0 0 0
0 0 0 0 0 0 0 0 0 0 0 0 0 0 0 0 0 0 0 0 0 0 0 0 0 0 0 0 0 0 0 0 0 0 0 0 0 0 0 0 0 0 0 0
0 0 0 0 0 0 0 0 0 0 0 0 0 0 0 0 0 0 0 0 0 0 0 0 0 0 0 0 0 0 0 0 0 0 0 0 0 0 0 0 0 0 0 0
0 0 0 0 0 0 0 0 0 0 0 0 0 0 0 0 0 0 0 0 0 0 0 0 0 0 0 0 0 0 0 0 0 0 0 0 0 0 0 0 0 0 0 7
0 0 0 0 0 0 0 0 0 0 0 0 0 0 0 0 0 0 0 0 0 0 0 0 0 0 0 0 0 0 0 0 0 0 0 0 0 0 0 0 0 0 0 1
0 0 0 0 0 0 0 0 0 0 0 0 0 0 0 0 0 0 0 0 0 0 0 0 0 0 0 0 0 0 0 0 0 0 0 0 0 0 0 0 0 0 0 0
0 0 0 0 0 0 0 0 0 0 0 0 0 0 0 0 0 0 0 0 0 0 0 0 0 0 0 0 0 0 0 0 0 0 0 0 0 0 0 0 0 0 0 0
0 0 0 0 0 0 0 0 0 0 0 0 0 0 0 0 0 0 0 0 0 0 0 0 0 0 0 0 0 0 0 0 0 0 0 0 0 0 0 0 0 0 0 0
0 0 0 0 0 0 0 0 0 0 0 0 0 0 0 0 0 0 0 0 0 0 0 0 0 0 0 0 0 0 0 0 0 0 0 0 0 0 0 0 0 0 0 0
0 0 0 0 0 0 0 0 0 0 0 0 0 0 0 0 0 0 0 0 0 0 0 0 0 0 0 0 0 0 0 0 0 0 0 0 0 0 0 0 0 0 0 0
0 0 0 0 0 0 0 0 0 0 0 0 0 0 0 0 0 0 0 0 0 0 0 0 0 0 0 0 0 0 0 0 0 0 0 0 0 0 0 0 0 0 0 0
0 0 0 0 0 0 0 0 0 0 0 0 0 0 0 0 0 0 0 0 0 0 0 0 0 0 0 0 0 0 0 0 0 0 0 0 0 0 0 0 0 0 0 0
0 0 0 0 0 0 0 0 0 0 0 0 0 0 0 0 0 0 0 0 0 0 0 0 0 0 0 0 0 0 0 0 0 0 0 0 0 0 0 0 0 0 0 0
0 0 0 0 0 0 0 0 0 0 0 0 0 0 0 0 0 0 0 0 0 0 0 0 0 0 0 0 0 0 0 0 0 0 0 0 0 0 0 0 0 0 0 0
0 0 0 0 0 0 0 0 0 0 0 0 0 0 0 0 0 0 0 0 0 0 0 0 0 0 0 0 0 0 0 0 0 0 0 0 0 0 0 0 0 0 0 0
CIN
-0 -0 -0 -0 -0 -0 -0 -0 -0 -0 -0 -0 -0 -0 -0 -0 -0 -0 -0 -0 -0 -0 -0 -0 -0 -0 -0 -0 -318 -0 -1 -0 -0 -0 -0 -0 -0 -0 -0 -0 -0 -0 -0 -0
-14 -8 -0 -0 -0 -0 -0 -0 -0 -0 -0 -0 -0 -0 -0 -0 -0 -0 -0 -0 -0 -0 -0 -0 -0 -0 -0 -0 -0 -0 -0 -0 -0 -0 -0 -0 -0 -0 -0 -0 -0 -0 -0 -0
-26 -0 -0 -0 -0 -0 -0 -0 -0 -0 -0 -0 -0 -0 -0 -0 -0 -0 -0 -0 -0 -0 -0 -0 -0 -0 -0 -0 -0 -0 -0 -0 -0 -0 -0 -0 -0 -0 -0 -0 -0 -0 -0 -0
-100 -0 -0 -0 -0 -0 -0 -0 -0 -0 -0 -0 -0 -0 -0 -0 -0 -0 -0 -0 -0 -0 -0 -0 -0 -0 -0 -0 -0 -0 -0 -0 -0 -0 -0 -0 -0 -0 -0 -0 -0 -0 -0 -0
-0 -0 -0 -0 -0 -0 -0 -0 -0 -0 -0 -0 -0 -0 -0 -0 -0 -0 -0 -0 -0 -0 -0 -0 -0 -0 -0 -0 -0 -0 -0 -0 -0 -0 -0 -0 -0 -0 -0 -0 -0 -0 -0 -0
-0 -0 -0 -0 -0 -0 -0 -0 -0 -0 -0 -0 -0 -0 -0 -0 -0 -0 -0 -0 -0 -0 -0 -0 -0 -0 -0 -0 -0 -0 -0 -0 -0 -0 -0 -0 -0 -0 -0 -0 -0 -0 -0 -0
-0 -0 -0 -0 -0 -0 -0 -0 -0 -0 -0 -0 -0 -0 -0 -0 -0 -0 -0 -0 -0 -0 -0 -0 -0 -0 -0 -0 -0 -0 -0 -0 -0 -0 -0 -0 -0 -0 -0 -0 -0 -0 -0 -0
-0 -0 -0 -0 -0 -0 -0 -0 -0 -0 -0 -0 -0 -0 -0 -0 -0 -0 -0 -0 -0 -0 -0 -0 -0 -0 -0 -0 -0 -0 -0 -0 -0 -0 -0 -0 -0 -0 -0 -0 -0 -0 -0 -0
-0 -0 -0 -0 -0 -0 -0 -0 -0 -0 -0 -0 -0 -0 -0 -0 -0 -0 -0 -0 -0 -0 -0 -0 -0 -0 -0 -0 -0 -0 -0 -0 -0 -0 -0 -0 -0 -0 -0 -0 -0 -0 -0 -0
-0 -0 -0 -0 -0 -0 -0 -0 -0 -0 -0 -0 -0 -0 -0 -0 -0 -0 -0 -0 -0 -0 -0 -0 -0 -0 -0 -0 -0 -0 -0 -0 -0 -0 -0 -0 -0 -0 -0 -0 -0 -0 -0 -0
-0 -0 -0 -0 -0 -0 -0 -0 -0 -0 -0 -0 -0 -0 -0 -0 -0 -0 -0 -0 -0 -0 -0 -0 -0 -0 -0 -0 -0 -0 -0 -0 -0 -0 -0 -0 -0 -0 -0 -0 -0 -0 -0 -0
-0 -0 -0 -0 -0 -0 -0 -0 -0 -0 -0 -0 -0 -0 -0 -0 -0 -0 -0 -0 -0 -0 -0 -0 -0 -0 -0 -0 -0 -0 -0 -0 -0 -0 -0 -0 -0 -0 -0 -0 -0 -0 -0 -0
-0 -0 -0 -0 -0 -0 -0 -0 -0 -0 -0 -0 -0 -0 -0 -0 -0 -0 -0 -0 -0 -0 -0 -0 -0 -0 -0 -0 -0 -0 -0 -0 -0 -0 -0 -0 -0 -0 -0 -0 -0 -0 -0 -0
-0 -0 -0 -0 -0 -0 -0 -0 -0 -0 -0 -0 -0 -0 -0 -0 -0 -0 -0 -0 -0 -0 -0 -0 -0 -0 -0 -0 -0 -0 -0 -0 -0 -0 -0 -0 -0 -0 -0 -0 -0 -0 -0 -9
-0 -0 -0 -0 -0 -0 -0 -0 -0 -0 -0 -0 -0 -0 -0 -0 -0 -0 -0 -0 -0 -0 -0 -0 -0 -0 -0 -0 -0 -0 -0 -0 -0 -0 -0 -0 -0 -0 -0 -0 -0 -0 -0 -20
-0 -0 -0 -0 -0 -0 -0 -0 -0 -0 -0 -0 -0 -0 -0 -0 -0 -0 -0 -0 -0 -0 -0 -0 -0 -0 -0 -0 -0 -0 -0 -0 -0 -0 -0 -0 -0 -0 -0 -0 -0 -0 -0 -20
-0 -0 -0 -0 -0 -0 -0 -0 -0 -0 -0 -0 -0 -0 -0 -0 -0 -0 -0 -0 -0 -0 -0 -0 -0 -0 -0 -0 -0 -0 -0 -0 -0 -0 -0 -0 -0 -0 -0 -0 -0 -0 -0 -0
-0 -0 -0 -0 -0 -0 -0 -0 -0 -0 -0 -0 -0 -0 -0 -0 -0 -0 -0 -0 -0 -0 -0 -0 -0 -0 -0 -0 -0 -0 -0 -0 -0 -0 -0 -0 -0 -0 -0 -0 -0 -0 -0 -0
-0 -0 -0 -0 -0 -0 -0 -0 -0 -0 -0 -0 -0 -0 -0 -0 -0 -0 -0 -0 -0 -0 -0 -0 -0 -0 -0 -0 -0 -0 -0 -0 -0 -0 -0 -0 -0 -0 -0 -0 -0 -0 -0 -0
-0 -0 -0 -0 -0 -0 -0 -0 -0 -0 -0 -0 -0 -0 -0 -0 -0 -0 -0 -0 -0 -0 -0 -0 -0 -0 -0 -0 -0 -0 -0 -0 -0 -0 -0 -0 -0 -0 -0 -0 -0 -0 -0 -0
-0 -0 -0 -0 -0 -0 -0 -0 -0 -0 -0 -0 -0 -0 -0 -0 -0 -0 -0 -0 -0 -0 -0 -0 -0 -0 -0 -0 -0 -0 -0 -0 -0 -0 -0 -0 -0 -0 -0 -0 -0 -0 -0 -0
-0 -0 -0 -0 -0 -0 -0 -0 -0 -0 -0 -0 -0 -0 -0 -0 -0 -0 -0 -0 -0 -0 -0 -0 -0 -0 -0 -0 -0 -0 -0 -0 -0 -0 -0 -0 -0 -0 -0 -0 -0 -0 -0 -0
-0 -0 -0 -0 -0 -0 -0 -0 -0 -0 -0 -0 -0 -0 -0 -0 -0 -0 -0 -0 -0 -0 -0 -0 -0 -0 -0 -0 -0 -0 -0 -0 -0 -0 -0 -0 -0 -0 -0 -0 -0 -0 -0 -0
-0 -0 -0 -0 -0 -0 -0 -0 -0 -0 -0 -0 -0 -0 -0 -0 -0 -0 -0 -0 -0 -0 -0 -0 -0 -0 -0 -0 -0 -0 -0 -0 -0 -0 -0 -0 -0 -0 -0 -0 -0 -0 -0 -0
-0 -0 -0 -0 -0 -0 -0 -0 -0 -0 -0 -0 -0 -0 -0 -0 -0 -0 -0 -0 -0 -0 -0 -0 -0 -0 -0 -0 -0 -0 -0 -0 -0 -0 -0 -0 -0 -0 -0 -0 -0 -0 -0 -0
-0 -0 -0 -0 -0 -0 -0 -0 -0 -0 -0 -0 -0 -0 -0 -0 -0 -0 -0 -0 -0 -0 -0 -0 -0 -0 -0 -0 -0 -0 -0 -0 -0 -2 -0 -0 -0 -0 -0 -0 -0 -0 -0 -0
Wind_Speed
12 10 9 10 11 11 9 10 13 18 18 12 12 13 15 13 9 9 11 10 12 13 15 14 14 12 13 13 12 12 13 14 13 16 18 19 19 20 21 21 24 25 25 27
15 13 17 15 13 13 12 12 12 13 16 9 9 13 15 13 11 10 9 10 11 12 13 14 13 13 14 14 14 14 14 14 14 16 17 19 19 20 21 23 25 26 27 28
13 15 15 18 15 16 17 14 21 7 6 7 11 15 15 12 10 10 11 11 12 12 14 16 16 15 16 17 16 16 16 16 16 17 18 19 21 22 24 26 26 28 29 29
17 17 19 15 17 18 22 14 9 7 9 6 18 13 16 11 9 9 9 10 11 13 14 15 14 15 16 17 17 17 17 17 18 19 21 23 25 26 25 25 26 28 29 30
21 17 16 18 20 19 18 13 9 12 15 14 18 18 17 8 7 4 7 8 10 11 12 14 14 14 16 16 18 18 20 21 21 23 25 25 26 26 25 26 28 29 32 33
17 16 17 20 17 17 15 15 14 15 16 16 16 18 15 2 5 6 7 7 7 8 10 13 13 16 17 17 18 19 20 23 24 24 26 26 27 27 28 31 33 35 36 36
18 19 18 17 15 16 13 12 15 16 12 18 21 15 8 12 7 9 9 7 6 7 9 10 11 14 15 18 18 19 20 23 25 27 28 29 29 30 33 36 37 38 41 41
19 21 19 18 17 15 15 11 9 19 19 13 5 12 6 7 9 12 11 8 7 7 7 9 11 13 15 17 18 19 21 24 27 29 31 32 33 35 36 38 39 40 41 39
19 19 18 16 16 15 14 16 10 10 9 10 8 8 10 9 11 13 13 8 6 5 5 7 9 13 14 17 18 20 22 25 29 30 32 34 36 37 39 40 41 41 39 36
17 19 17 17 14 13 15 8 10 14 9 9 12 9 8 9 10 10 10 9 6 5 6 7 8 11 14 16 18 20 22 25 29 31 33 36 38 39 41 42 43 41 37 31
16 16 18 17 16 13 12 12 13 12 14 13 15 11 11 7 10 9 6 6 5 4 5 6 9 12 13 15 17 20 22 26 28 31 33 36 38 39 41 42 42 39 35 29
18 16 19 18 18 18 14 11 11 11 12 14 13 11 19 7 5 4 3 3 3 4 5 8 9 11 13 16 17 21 23 26 28 30 33 35 37 38 41 42 41 37 34 29
19 19 16 18 18 17 13 12 12 13 14 10 13 14 20 15 7 3 3 3 4 5 7 9 10 10 12 16 19 22 24 24 28 31 33 35 38 40 42 42 42 38 35 32
16 17 18 5 14 13 9 8 10 11 10 12 8 18 16 12 8 6 5 4 5 6 8 9 11 11 15 17 21 20 22 26 28 31 33 36 39 41 42 43 41 39 36 34
16 18 16 14 16 15 12 9 8 7 11 10 17 18 20 10 8 6 5 6 7 8 10 11 14 14 16 21 18 20 24 27 29 31 35 37 39 41 42 42 41 39 37 33
17 15 13 13 17 19 15 13 12 13 15 15 21 24 21 18 11 9 7 7 8 10 12 14 15 17 18 18 19 23 25 28 30 33 36 38 40 41 42 42 41 39 37 35
15 9 12 15 18 20 17 11 8 14 17 17 19 22 19 17 12 9 8 9 10 12 15 16 18 19 19 19 21 23 27 31 32 34 37 39 39 41 42 42 40 39 35 31
12 13 15 17 17 19 17 18 19 15 17 16 22 22 19 19 17 11 10 11 13 15 17 18 19 21 20 22 22 25 29 32 34 36 39 40 39 40 42 41 40 38 32 27
15 14 17 19 18 25 22 18 18 17 21 16 21 21 19 18 18 17 13 13 15 16 17 19 21 23 24 23 24 28 32 34 35 38 40 39 37 40 42 40 38 35 29 24
16 16 17 19 25 28 21 20 18 21 28 21 16 16 15 17 25 24 15 13 15 16 19 20 21 22 22 24 27 31 35 37 39 39 39 36 36 39 39 37 33 29 26 21
18 20 18 20 25 27 19 19 18 26 30 18 12 13 16 21 23 23 18 15 16 19 20 19 20 23 25 26 30 35 37 38 39 38 37 37 38 37 35 33 30 26 22 18
18 18 21 21 25 33 17 17 21 22 21 17 17 17 18 20 20 21 19 16 17 18 18 19 22 25 26 29 33 36 37 38 39 38 38 39 39 33 31 30 27 24 19 17
22 18 23 17 22 21 18 21 20 22 23 23 20 20 17 18 20 18 18 16 17 17 18 20 23 27 30 32 34 36 38 38 39 38 39 40 36 30 28 26 23 20 18 17
20 18 23 25 24 25 25 23 24 24 25 26 24 20 18 20 18 18 17 16 17 17 19 22 26 30 33 34 34 35 38 38 38 37 38 38 33 29 25 23 20 18 17 18
21 19 24 27 30 30 27 24 24 26 25 24 23 21 20 18 18 16 14 16 16 18 20 24 28 32 34 35 35 36 37 37 37 36 36 35 31 25 23 18 16 17 17 17
20 24 27 32 28 28 29 29 28 24 24 23 23 21 19 17 16 14 16 16 19 18 22 27 30 32 35 36 37 37 36 35 36 35 33 32 29 24 19 16 16 16 16 18
Wind_Direction
258 249 258 277 294 299 298 294 300 266 254 283 298 304 292 290 305 314 318 324 327 328 330 341 346 358 9 6 6 2 1 8 19 11 9 9 2 357 356 355 349 347 348 346
248 256 257 274 288 272 280 307 322 279 260 297 332 325 306 299 310 331 352 350 352 357 360 4 12 23 30 34 23 20 24 26 23 16 7 358 356 350 349 350 349 347 346 345
266 265 270 243 255 251 253 257 217 42 6 337 315 311 302 306 333 354 10 22 29 33 39 38 37 36 38 32 31 28 26 22 13 13 10 3 357 351 345 343 343 344 345 345
233 241 226 245 240 248 235 290 332 61 321 358 290 319 299 314 338 6 27 36 37 49 42 31 30 33 35 31 28 25 22 16 10 8 357 350 345 342 343 342 341 341 344 342
224 244 251 245 245 258 271 295 331 308 304 307 295 307 306 335 339 31 72 61 57 53 53 36 33 33 23 14 9 4 3 4 1 355 351 348 346 347 346 344 341 338 336 336
243 266 264 254 271 280 288 293 306 314 317 317 315 308 317 317 167 128 112 98 70 40 29 29 30 17 7 0 359 358 5 2 1 357 355 353 350 347 343 338 335 335 336 336
248 257 269 278 287 293 307 316 309 315 332 317 297 325 308 175 145 147 137 123 80 41 39 30 17 4 1 354 358 2 2 359 356 355 353 351 348 345 340 336 335 334 334 334
254 251 267 279 283 299 301 317 340 205 206 185 79 180 62 145 142 150 142 114 94 89 55 13 7 12 11 9 8 5 358 353 351 349 348 347 344 341 339 338 336 334 333 333
259 263 277 285 288 290 300 290 342 13 96 136 106 43 34 54 127 145 150 131 118 91 65 48 39 23 16 7 3 359 355 350 348 348 348 347 346 344 341 339 337 334 333 332
268 259 272 267 282 298 285 24 355 306 75 71 26 52 65 79 128 132 141 146 118 86 69 61 33 15 9 7 4 2 355 352 350 349 348 347 345 344 343 341 339 338 337 337
266 268 257 261 266 281 297 329 338 359 350 18 10 47 30 118 130 137 135 143 131 111 86 48 21 14 13 12 4 359 355 350 349 348 347 346 346 346 345 344 342 341 339 336
259 264 253 263 264 267 305 338 348 4 18 2 10 22 338 26 153 116 103 102 75 67 39 22 17 14 10 4 360 355 351 348 347 348 347 347 346 346 345 344 344 343 340 337
249 258 268 265 277 286 311 328 341 352 351 11 2 4 344 6 27 20 27 44 43 35 18 9 6 1 357 354 351 347 345 347 346 345 345 346 346 345 344 344 344 343 341 339
269 272 270 129 309 309 330 340 346 352 6 358 353 343 345 355 0 357 2 10 6 2 358 354 351 350 348 347 340 341 343 343 343 343 344 344 344 343 343 343 343 342 341 338
278 275 287 302 307 313 325 334 337 335 334 339 337 336 333 328 324 327 337 341 340 340 342 342 342 341 340 334 336 339 339 340 341 342 342 342 343 343 343 343 343 342 341 341
284 297 306 309 309 310 317 321 320 319 319 318 320 323 328 334 331 321 312 318 321 328 334 337 338 335 330 331 333 335 337 339 340 340 340 341 341 342 343 343 343 343 341 342
299 315 312 309 312 314 315 309 289 315 315 317 315 322 331 332 325 310 307 310 316 325 331 333 333 334 332 332 334 335 337 338 338 338 339 339 340 340 341 342 342 342 342 345
313 310 309 309 315 305 317 320 321 312 316 312 319 320 323 326 329 326 317 312 317 325 330 332 334 335 335 335 336 337 338 337 337 337 337 338 339 340 342 342 342 342 342 343
318 313 309 305 302 310 314 317 317 312 313 310 313 319 325 331 333 325 314 316 320 325 329 333 336 336 336 338 340 339 338 338 338 336 337 338 340 341 342 342 343 346 350 353
326 323 309 310 305 305 320 323 322 322 309 315 310 316 323 330 320 321 317 311 319 328 332 333 337 340 343 343 342 340 339 338 337 337 338 339 340 340 341 343 345 348 350 353
323 319 310 308 307 311 315 323 326 313 318 330 323 319 320 318 320 330 333 326 328 332 336 342 344 344 344 345 343 339 339 339 341 341 341 340 339 339 341 343 346 348 351 358
319 319 316 317 311 310 325 324 314 321 326 326 319 316 311 316 322 328 332 333 332 335 340 343 343 344 344 342 340 339 340 341 341 341 340 340 339 340 343 345 348 352 358 1
313 315 317 312 317 325 322 319 318 321 319 319 312 314 310 313 318 321 325 329 334 337 341 344 342 341 341 341 341 340 340 341 341 342 342 343 343 345 347 349 352 356 0 1
318 320 314 317 320 315 315 312 309 311 312 315 314 311 311 313 314 320 326 332 337 337 340 341 340 338 338 341 341 340 341 342 342 342 343 346 346 347 350 351 356 1 3 358
322 325 317 313 314 314 315 315 315 315 314 314 315 313 311 315 317 318 321 329 334 337 340 340 339 338 339 340 340 341 341 343 343 342 344 346 347 347 349 355 1 2 1 0
317 313 312 312 318 318 320 322 323 320 318 315 314 316 317 317 320 329 334 339 336 336 339 339 339 339 339 340 341 342 343 344 343 344 345 347 348 350 352 355 356 358 359 359